Simultaneous Nadir Overpasses (SNOs) Predictions

Prediction of SNOs between AQUA and NOAA-19 Satellite Orbit:

Table of predicted SNOs for the next 14.0 days since TLE Epoch: 10/2/2021
Index Date (AQUA) Time (AQUA) Lat,Lon (AQUA) SZA (AQUA ) Date (NOAA-19) Time (NOAA-19) Lat,Lon (NOAA-19) SZA (NOAA-19 ) Distance(km) Time Diff (sec)
1 10/04/2021 03:54:06 78.41, 100.91 83.32 10/04/2021 03:53:01 78.43, 100.96 83.35 2.39 65
2 10/04/2021 04:43:33 -78.44, -91.60 96.64 10/04/2021 04:43:56 -78.44, -91.71 96.64 2.57 23
3 10/06/2021 10:17:16 78.43, 5.02 84.20 10/06/2021 10:17:06 78.44, 5.08 84.21 1.59 10
4 10/06/2021 11:06:46 -78.58, 171.86 95.60 10/06/2021 11:07:56 -78.63, 173.61 95.68 38.83 70
5 10/08/2021 15:50:59 -78.40, 101.74 95.00 10/08/2021 15:50:08 -78.42, 101.76 94.98 1.81 51
6 10/08/2021 16:40:27 78.46, -90.90 85.08 10/08/2021 16:41:12 78.45, -90.83 85.06 2.01 45
7 10/10/2021 22:14:10 -78.43, 5.79 94.12 10/10/2021 22:14:14 -78.43, 5.87 94.13 1.97 4
8 10/13/2021 03:47:53 78.40, 102.51 86.68 10/13/2021 03:47:25 78.40, 102.50 86.69 0.46 28
9 10/13/2021 04:37:20 -78.43, -89.98 93.28 10/13/2021 04:38:20 -78.43, -90.02 93.29 0.99 60
10 10/15/2021 09:21:36 -78.39,-160.87 92.52 10/15/2021 09:20:27 -78.39,-160.72 92.51 3.33 69



Historial Predications of SNOs between AQUA and NOAA-19
